Weather reports worldwide

Advertisment
Cherbourg, France (7024): temperature & dewpoint: 08.07.2020 11:00:00 - 14.07.2020 11:00:00 (CEST)Cherbourg, France (7024): temperature 5cm: 08.07.2020 11:00:00 - 14.07.2020 11:00:00 (CEST)Cherbourg, France (7024): temperature -20cm & temperature -100cm: 08.07.2020 11:00:00 - 14.07.2020 11:00:00 (CEST)Cherbourg, France (7024): wind speed & gusts: 08.07.2020 11:00:00 - 14.07.2020 11:00:00 (CEST)Cherbourg, France (7024): wind direction: 08.07.2020 11:00:00 - 14.07.2020 11:00:00 (CEST)Cherbourg, France (7024): reduced air pressure: 08.07.2020 11:00:00 - 14.07.2020 11:00:00 (CEST)Cherbourg, France (7024): visibility: 08.07.2020 11:00:00 - 14.07.2020 11:00:00 (CEST)Cherbourg, France (7024): sunshine duration: 08.07.2020 11:00:00 - 14.07.2020 11:00:00 (CEST)Cherbourg, France (7024): precipitation: 08.07.2020 11:00:00 - 14.07.2020 11:00:00 (CEST)
Date & Time tt [°C] td [°C] tt 5cm [°C] tt -20cm [°C] tt -100cm [°C] ff [km/h] ff [kn] fx [km/h] fx [kn] dd ppp [hPa] vv [km] sd [min] rr [mm]
14.07.2020 11:00:00 15,1 14,5 - - - 15 8 22 12 WNW 1018,7 15 - -
14.07.2020 10:00:00 14,8 14,6 15,4 16,6 15,7 13 7 26 14 NW 1018,7 11 0 0,0
14.07.2020 09:00:00 14,8 14,6 15,1 16,7 15,7 14 8 30 16 WNW 1018,4 2,5 0 0,0
14.07.2020 08:00:00 15,0 14,8 14,9 16,7 15,7 18 10 27 15 WNW 1018,4 0,6 0 0,0
14.07.2020 07:00:00 14,8 14,6 14,8 16,7 15,7 17 9 31 17 W 1018,4 0,7 0 0,2
14.07.2020 06:00:00 14,9 14,7 14,9 16,8 15,7 20 11 34 19 W 1018,6 0,4 0 0,0
14.07.2020 05:00:00 15,1 14,9 15,1 16,8 15,7 21 12 34 18 W 1018,9 8 0 0,0
14.07.2020 04:00:00 15,2 15,0 14,5 16,8 15,7 19 10 28 15 W 1019,4 1,6 0 0,0
14.07.2020 03:00:00 14,6 14,3 14,0 16,9 15,7 19 10 29 16 WSW 1019,9 6 0 0,6
14.07.2020 02:00:00 14,3 13,5 12,8 16,9 15,7 17 9 27 15 W 1020,6 2,4 0 1,0
14.07.2020 01:00:00 14,3 11,8 12,8 17,0 15,7 16 8 24 13 W 1021,1 55 0 0,2
14.07.2020 00:00:00 15,0 9,6 13,3 17,0 15,7 14 8 22 12 W 1021,5 60 0 0,0
13.07.2020 23:00:00 14,7 9,9 11,6 17,0 15,7 14 8 21 12 W 1022,2 60 0 0,0
13.07.2020 22:00:00 14,7 9,1 12,5 17,0 15,7 13 7 22 12 W 1022,3 60 21 0,0
13.07.2020 21:00:00 16,3 11,2 16,6 17,0 15,7 14 8 27 15 WNW 1022,5 40 28 0,0
13.07.2020 20:00:00 16,3 9,9 16,9 16,9 15,7 17 9 29 15 WNW 1023,2 45 44 0,0
13.07.2020 19:00:00 19,1 10,4 21,0 16,8 15,7 15 8 25 13 WNW 1023,1 47 51 0,0
13.07.2020 18:00:00 18,1 10,9 21,8 16,8 15,7 13 7 24 13 WNW 1023,8 36 44 0,0
13.07.2020 17:00:00 20,2 7,9 25,3 16,6 15,7 12 7 25 14 WNW 1023,9 38 48 0,0
13.07.2020 16:00:00 19,6 8,9 26,3 16,5 15,7 13 7 23 12 WNW 1024,5 40 48 0,0
13.07.2020 15:00:00 20,4 8,7 29,1 16,3 15,7 12 6 21 11 NW 1024,8 45 60 0,0
13.07.2020 14:00:00 20,0 8,0 29,5 16,2 15,7 12 6 19 10 NW 1025,6 46 60 0,0
13.07.2020 13:00:00 19,6 8,0 30,5 16,2 15,7 10 5 20 11 NW 1026,0 51 60 0,0
13.07.2020 12:00:00 19,5 7,9 30,1 16,1 15,7 8 4 15 8 NW 1026,4 20 60 0,0
13.07.2020 11:00:00 18,6 9,1 27,1 16,1 15,7 8 5 13 7 NNW 1026,6 47 60 0,0
13.07.2020 10:00:00 18,6 9,6 22,5 16,1 15,7 6 4 12 6 N 1026,6 48 60 0,0
13.07.2020 09:00:00 17,3 10,4 14,2 16,2 15,6 5 3 9 5 NNE 1026,6 54 60 0,0
13.07.2020 08:00:00 15,4 11,2 5,0 16,3 15,7 6 3 10 5 N 1026,5 55 60 0,0
13.07.2020 07:00:00 11,1 10,5 2,5 16,4 15,7 5 3 9 5 NNW 1026,7 19 9 0,0
13.07.2020 06:00:00 11,4 10,5 2,5 16,5 15,7 6 4 9 5 NW 1026,5 26 0 0,0
13.07.2020 05:00:00 11,4 10,0 4,7 16,6 15,6 8 4 12 6 NW 1026,8 38 0 0,2
13.07.2020 04:00:00 12,4 10,5 2,3 16,7 15,7 7 4 11 6 NNW 1027,2 59 0 0,0
13.07.2020 03:00:00 11,6 9,8 2,8 16,8 15,7 6 3 9 5 N 1027,6 57 0 0,0
13.07.2020 02:00:00 12,2 10,1 2,3 16,9 15,6 7 4 10 6 N 1027,8 50 0 0,0
13.07.2020 01:00:00 11,8 10,2 2,3 16,9 15,6 7 4 8 5 NNE 1027,9 60 0 0,0
13.07.2020 00:00:00 11,9 10,8 2,8 17,0 15,7 5 3 8 5 NNE 1027,8 53 0 0,0
12.07.2020 23:00:00 12,3 10,9 4,9 17,0 15,6 7 4 10 5 N 1027,7 58 0 0,0
12.07.2020 22:00:00 13,4 10,0 8,5 17,0 15,7 6 3 12 7 N 1027,3 60 30 0,0
12.07.2020 21:00:00 16,1 9,3 15,5 17,0 15,6 10 5 16 9 NE 1027,1 56 60 0,0
12.07.2020 20:00:00 17,2 9,6 20,0 17,0 15,7 11 6 22 12 NNE 1027,2 20 60 0,0
12.07.2020 19:00:00 18,0 8,5 23,5 16,8 15,7 14 7 25 13 NE 1027,4 40 60 0,0
12.07.2020 18:00:00 18,6 8,0 28,4 16,7 15,6 16 8 27 15 NE 1027,8 37 60 0,0
12.07.2020 17:00:00 18,7 9,7 30,8 16,6 15,6 17 9 35 19 ENE 1028,1 20 60 0,0
12.07.2020 16:00:00 19,3 8,9 31,7 16,5 15,6 16 9 32 17 ENE 1028,3 35 60 0,0
12.07.2020 15:00:00 19,5 9,1 30,1 16,4 15,6 17 9 32 17 NE 1028,3 20 60 0,0
12.07.2020 14:00:00 18,8 8,7 27,8 16,3 15,6 16 9 26 14 ENE 1028,7 55 47 0,0
12.07.2020 13:00:00 19,6 8,6 24,9 16,2 15,6 14 8 27 15 E 1028,6 60 39 0,0
12.07.2020 12:00:00 18,9 9,4 25,3 16,2 15,6 9 5 26 14 E 1028,5 51 44 0,0
12.07.2020 11:00:00 18,1 10,5 26,6 16,2 15,6 8 4 16 9 ENE 1028,8 42 51 0,0
12.07.2020 10:00:00 17,4 11,7 22,2 16,2 15,6 10 5 16 9 E 1028,9 60 60 0,0
12.07.2020 09:00:00 16,6 11,3 14,5 16,3 15,6 6 3 11 6 NE 1028,6 60 60 0,0
12.07.2020 08:00:00 14,8 12,1 4,9 16,4 15,6 6 3 8 5 NNE 1028,2 44 60 0,0
12.07.2020 07:00:00 12,3 10,5 2,0 16,4 15,6 6 4 9 5 NNE 1028,0 57 10 0,2
12.07.2020 06:00:00 11,4 10,0 1,2 16,6 15,6 6 4 8 4 NNE 1028,1 60 0 0,0
12.07.2020 05:00:00 10,4 9,5 1,9 16,6 15,6 5 3 8 5 N 1028,0 60 0 0,0
12.07.2020 04:00:00 11,1 10,6 2,3 16,8 15,6 6 4 9 5 N 1028,1 60 0 0,0
12.07.2020 03:00:00 10,7 10,4 2,8 16,8 15,6 6 4 9 5 N 1028,4 19 0 0,0
12.07.2020 02:00:00 11,9 10,8 5,4 16,9 15,6 7 4 11 6 NNW 1028,4 60 0 0,2
12.07.2020 01:00:00 11,9 10,3 5,2 17,0 15,6 7 4 11 6 NNW 1028,6 60 0 0,0
12.07.2020 00:00:00 12,1 10,0 6,1 17,0 15,6 6 3 10 6 NNW 1028,7 59 0 0,0
11.07.2020 23:00:00 12,3 9,7 6,2 17,0 15,6 6 4 11 6 NNW 1028,8 60 0 0,0
11.07.2020 22:00:00 13,3 9,9 9,5 17,0 15,6 4 2 10 6 N 1028,4 20 31 0,0
11.07.2020 21:00:00 15,5 9,2 15,7 17,0 15,7 7 4 11 6 NNW 1027,9 52 60 0,0
11.07.2020 20:00:00 17,1 8,2 19,2 16,9 15,6 8 4 15 8 NNW 1027,7 60 60 0,0
11.07.2020 19:00:00 17,3 7,3 22,2 16,8 15,6 9 5 19 10 N 1027,9 19 60 0,0
11.07.2020 18:00:00 17,6 8,4 24,8 16,6 15,6 11 6 20 11 NW 1028,1 45 60 0,0
11.07.2020 17:00:00 17,9 8,5 27,5 16,5 15,6 9 5 22 12 NW 1028,2 49 60 0,0
11.07.2020 16:00:00 17,5 9,9 27,9 16,4 15,6 12 7 22 12 N 1028,2 19 60 0,0
11.07.2020 15:00:00 17,7 9,1 28,7 16,3 15,6 9 5 20 11 N 1028,2 19 60 0,0
11.07.2020 14:00:00 17,6 7,3 23,8 16,2 15,5 11 6 22 12 NNE 1028,3 59 55 0,0
11.07.2020 13:00:00 17,7 9,8 26,9 16,2 15,6 9 5 18 10 NE 1028,2 60 56 0,0
11.07.2020 12:00:00 17,2 9,4 27,9 16,1 15,5 9 5 20 11 NE 1028,0 50 56 0,0
11.07.2020 11:00:00 16,6 8,5 27,9 16,1 15,6 12 7 22 12 NE 1027,9 40 60 0,0
11.07.2020 10:00:00 16,4 9,3 21,8 16,2 15,5 11 6 22 12 ENE 1027,6 60 60 0,0
11.07.2020 09:00:00 15,5 8,7 13,2 16,2 15,5 11 6 22 12 NE 1027,2 60 60 0,0
11.07.2020 08:00:00 14,4 9,6 7,1 16,3 15,5 8 4 14 7 ENE 1026,5 53 60 0,0
11.07.2020 07:00:00 12,3 9,7 3,6 16,4 15,6 8 4 12 7 NE 1026,1 59 10 0,0
11.07.2020 06:00:00 11,1 9,5 3,9 16,4 15,5 6 4 13 7 NNE 1025,7 59 0 0,0
11.07.2020 05:00:00 11,6 10,0 6,8 16,5 15,5 8 4 14 8 N 1025,4 60 0 0,0
11.07.2020 04:00:00 12,0 10,1 8,2 16,6 15,5 5 3 13 7 NW 1025,3 60 0 0,0
11.07.2020 03:00:00 12,4 9,8 9,1 16,7 15,6 8 4 18 10 NNW 1025,3 60 0 0,0
11.07.2020 02:00:00 12,7 9,7 6,2 16,8 15,6 10 5 18 10 NNW 1024,9 60 0 0,0
11.07.2020 01:00:00 10,9 9,7 5,5 16,9 15,5 9 5 18 10 W 1024,9 57 0 0,0
11.07.2020 00:00:00 10,4 8,8 4,8 16,9 15,6 8 5 14 8 W 1024,4 57 0 0,0
10.07.2020 23:00:00 11,0 8,9 6,8 16,9 15,5 9 5 15 8 W 1023,7 60 0 0,0
10.07.2020 22:00:00 13,0 9,6 10,6 16,9 15,5 8 5 20 11 WNW 1023,1 60 31 0,0
10.07.2020 21:00:00 15,0 10,4 14,9 16,9 15,5 12 6 24 13 WNW 1022,7 41 60 0,0
10.07.2020 20:00:00 15,7 10,5 17,4 16,9 15,5 15 8 27 14 WNW 1022,5 25 60 0,0
10.07.2020 19:00:00 16,2 10,7 19,6 16,8 15,5 17 9 33 18 WNW 1022,1 24 60 0,0
10.07.2020 18:00:00 16,6 10,7 23,0 16,6 15,5 16 9 30 16 WNW 1021,9 22 60 0,0
10.07.2020 17:00:00 16,8 10,2 25,5 16,5 15,5 15 8 27 15 NW 1021,6 20 60 0,0
10.07.2020 16:00:00 16,6 10,9 26,0 16,4 15,5 14 8 27 14 NW 1021,6 20 60 0,0
10.07.2020 15:00:00 16,3 11,9 25,9 16,3 15,5 17 9 29 16 NW 1021,3 13 60 0,0
10.07.2020 14:00:00 16,3 11,7 25,2 16,2 15,5 16 8 30 16 NW 1020,9 23 60 0,0
10.07.2020 13:00:00 15,7 12,1 21,1 16,2 15,5 16 9 27 15 NW 1020,5 24 39 0,0
10.07.2020 12:00:00 15,1 10,7 19,1 16,1 15,5 15 8 31 17 NW 1020,0 25 44 0,0
10.07.2020 11:00:00 14,8 11,2 18,1 16,2 15,5 16 9 30 16 NNW 1019,2 26 35 0,0
10.07.2020 10:00:00 14,8 11,6 16,6 16,2 15,5 16 9 30 16 NNW 1018,7 29 48 0,0
10.07.2020 09:00:00 14,7 10,9 14,8 16,2 15,5 16 9 31 17 N 1017,9 46 25 0,0
10.07.2020 08:00:00 14,2 12,1 13,5 16,3 15,5 15 8 29 16 NNW 1017,3 35 1 0,0
10.07.2020 07:00:00 13,9 11,4 13,2 16,3 15,5 13 7 31 17 NW 1016,6 59 0 0,0
10.07.2020 06:00:00 13,7 11,9 13,4 16,3 15,5 14 8 37 20 NNW 1015,8 58 0 0,0
10.07.2020 05:00:00 14,0 13,4 13,6 16,4 15,5 19 10 34 19 NW 1015,3 15 0 0,0
10.07.2020 04:00:00 13,8 12,9 12,5 16,4 15,5 20 11 33 18 WNW 1015,0 30 0 0,0
10.07.2020 03:00:00 13,8 12,5 13,5 16,4 15,5 18 10 39 21 WNW 1015,0 35 0 0,0
10.07.2020 02:00:00 14,6 14,0 14,3 16,4 15,5 20 11 35 19 W 1014,8 18 0 0,0
10.07.2020 01:00:00 14,7 13,9 14,5 16,5 15,5 19 10 35 19 W 1014,6 34 0 0,0
10.07.2020 00:00:00 14,7 13,9 14,6 16,5 15,5 22 12 37 20 W 1014,3 32 0 0,0
09.07.2020 23:00:00 14,8 13,7 14,2 16,5 15,5 26 14 40 22 W 1014,3 37 0 0,0
09.07.2020 22:00:00 14,8 13,2 14,4 16,5 15,5 29 16 47 26 W 1013,8 52 8 0,0
09.07.2020 21:00:00 15,3 13,5 15,5 16,5 15,5 30 16 46 25 W 1013,7 45 0 0,0
09.07.2020 20:00:00 16,2 14,0 16,8 16,5 15,5 25 13 43 23 W 1013,7 36 5 0,0
09.07.2020 19:00:00 17,9 14,6 18,8 16,5 15,5 29 16 53 29 W 1013,7 47 21 0,0
09.07.2020 18:00:00 17,7 15,3 18,4 16,4 15,5 29 16 50 27 W 1014,1 20 0 0,0
09.07.2020 17:00:00 17,7 15,7 17,9 16,4 15,5 23 13 40 21 WSW 1014,5 42 0 0,0
09.07.2020 16:00:00 17,2 16,1 17,8 16,4 15,5 23 13 44 24 WSW 1015,0 20 0 0,4
09.07.2020 15:00:00 16,8 16,0 18,0 16,3 15,5 27 15 41 22 WSW 1015,2 2,1 0 0,0
09.07.2020 14:00:00 17,1 16,1 18,7 16,3 15,5 26 14 40 22 SW 1015,4 4,1 0 0,0
09.07.2020 13:00:00 16,7 15,1 18,7 16,2 15,5 25 13 41 22 SW 1015,7 14 8 0,0
09.07.2020 12:00:00 19,2 15,1 24,0 16,2 15,5 26 14 43 23 SW 1015,2 25 53 0,0
09.07.2020 11:00:00 18,7 15,2 22,1 16,2 15,5 26 14 40 21 SW 1015,4 26 50 0,0
09.07.2020 10:00:00 17,3 - 22,0 16,2 15,5 25 13 41 22 WSW - 26 58 0,0
09.07.2020 09:00:00 16,9 14,7 17,0 16,2 15,5 22 12 38 20 WSW 1015,2 28 54 0,0
09.07.2020 08:00:00 15,3 14,7 13,6 16,2 15,5 16 9 27 15 SW 1015,7 38 15 0,0
09.07.2020 07:00:00 14,1 13,8 13,6 16,3 15,5 14 7 31 17 SSW 1015,8 29 0 0,0
09.07.2020 06:00:00 13,8 13,5 13,2 16,3 15,5 18 10 31 17 SSW 1016,0 9 0 0,0
09.07.2020 05:00:00 13,7 13,4 13,6 16,3 15,5 21 11 36 19 SW 1016,7 8 0 0,0
09.07.2020 04:00:00 13,8 13,5 13,7 16,3 15,5 24 13 38 20 SW 1017,2 1,4 0 0,0
09.07.2020 03:00:00 13,9 13,6 13,8 16,4 15,5 21 12 31 17 SW 1017,4 6 0 0,0
09.07.2020 02:00:00 14,1 13,8 14,2 16,4 15,5 12 7 26 14 WSW 1017,8 0,4 0 0,0
09.07.2020 01:00:00 14,4 14,1 14,5 16,4 15,5 17 9 34 18 W 1018,0 0,5 0 0,0
09.07.2020 00:00:00 14,7 14,2 14,7 16,4 15,5 19 11 29 16 W 1017,8 1,9 0 0,0
08.07.2020 23:00:00 14,9 14,4 14,9 16,4 15,5 16 8 29 16 W 1018,2 7 0 0,0
08.07.2020 22:00:00 15,1 14,5 15,1 16,4 15,5 19 10 37 20 W 1017,9 10 1 0,0
08.07.2020 21:00:00 15,6 14,5 16,2 16,4 15,5 27 14 44 24 W 1018,0 19 5 0,0
08.07.2020 20:00:00 16,1 15,0 16,9 16,4 15,5 28 15 42 23 W 1018,2 26 1 0,0
08.07.2020 19:00:00 16,4 14,9 17,5 16,3 15,4 25 13 44 24 W 1018,4 24 0 0,0
08.07.2020 18:00:00 16,5 14,9 17,9 16,3 15,5 28 15 43 23 W 1018,6 20 0 0,0
08.07.2020 17:00:00 17,1 - 19,1 16,3 15,5 24 13 44 24 W - 39 0 0,0
08.07.2020 16:00:00 18,2 - 21,5 16,2 15,5 26 14 50 27 W - 20 12 0,0
08.07.2020 15:00:00 18,5 15,6 19,5 16,2 15,5 32 17 46 25 W 1018,6 20 10 0,0
08.07.2020 14:00:00 18,2 15,4 18,7 16,2 15,5 30 16 43 23 W 1018,5 52 4 0,0
08.07.2020 13:00:00 16,9 15,2 17,4 16,1 15,5 26 14 40 21 W 1018,8 20 0 0,0
08.07.2020 12:00:00 16,2 15,1 17,1 16,1 15,5 25 13 45 24 W 1018,8 15 0 0,0
08.07.2020 11:00:00 15,9 14,9 16,3 16,1 15,4 24 13 40 22 W 1018,3 17 0 0,0

tt = temperature
td = dewpoint
tt 5cm = temperature 5cm
tt -20cm = temperature -20cm
tt -100cm = temperature -100cm
ff = wind speed
fx = gusts
dd = wind direction
ppp = reduced air pressure
vv = visibility
sd = sunshine duration
rr = precipitation

Next stations